Wind_Speed
23 24 23 19 23 26 21 16 14 14 12 10 9 8 8 7 8 9 10 16 4 3 3 5 4 4 4 4 3 3 4 5 4 4 2 2 1 3 3 3 7 2 3 3 4 1 2 18 6 6 4 7 9 11
21 21 21 25 25 23 20 17 15 15 15 12 10 9 7 6 6 7 6 11 9 4 3 4 2 2 5 5 4 3 5 2 3 3 1 1 2 3 4 3 6 4 5 2 5 3 4 4 6 8 8 9 9 10
23 21 23 27 25 23 20 17 15 14 14 13 11 8 6 7 7 10 10 12 5 3 4 5 2 5 6 5 4 4 2 2 1 4 3 2 1 1 2 3 3 7 9 2 2 4 8 9 7 10 9 10 11 10
22 21 28 23 27 23 18 16 16 16 16 14 12 10 10 8 8 10 9 12 5 3 3 1 4 2 7 9 7 6 6 3 3 2 1 2 1 2 1 2 2 3 7 6 3 6 6 9 9 7 9 10 12 12
22 27 26 30 26 21 17 16 18 16 17 15 13 12 10 9 9 7 10 10 10 4 3 3 11 1 10 12 10 7 6 3 2 2 2 2 2 0 1 2 2 4 3 3 1 6 4 4 6 8 8 10 8 11
24 28 28 27 27 19 18 20 17 19 18 16 15 12 9 9 6 3 3 8 6 4 3 1 5 3 10 11 9 8 5 3 2 2 2 3 4 2 2 2 1 2 4 5 2 5 8 7 8 8 9 9 9 9
25 24 31 27 22 21 22 21 21 20 17 17 15 12 11 10 10 7 3 1 2 3 3 3 3 3 6 5 2 2 4 2 2 1 1 2 3 3 2 2 5 3 3 3 2 5 4 1 4 5 11 15 15 14
25 26 27 27 22 22 22 21 21 19 19 17 15 13 12 12 8 6 6 8 5 7 2 2 3 3 2 1 1 1 2 2 2 2 2 2 3 2 2 7 7 6 5 2 4 3 5 5 6 8 14 13 9 9
24 27 24 27 24 21 20 20 21 21 20 18 16 14 10 3 3 3 5 2 6 4 2 1 2 3 2 1 2 2 2 1 1 2 3 2 1 1 4 9 7 2 2 5 4 4 11 11 10 10 9 8 9 8
23 24 24 25 25 20 22 25 25 24 22 19 9 5 2 1 10 8 3 2 2 1 0 2 0 2 3 1 2 2 0 2 1 4 1 2 2 3 6 7 6 4 4 2 5 7 9 8 9 9 9 9 9 9
19 20 20 26 24 24 26 24 27 25 19 4 3 2 4 14 3 1 2 1 1 2 3 3 5 2 1 3 3 3 2 2 2 2 3 2 3 3 9 10 9 8 10 9 10 8 10 10 9 9 8 10 9 9
18 19 20 28 24 26 27 27 29 15 8 7 9 7 7 2 1 3 3 1 3 3 2 3 4 4 2 2 2 1 2 2 3 2 2 1 1 9 9 10 8 10 12 13 14 14 15 15 13 13 11 11 11 12
18 19 24 32 27 29 27 31 20 14 18 8 3 3 3 2 3 4 4 3 0 2 2 0 2 3 2 3 1 1 2 3 2 1 2 1 6 7 8 8 9 12 13 13 12 14 15 14 14 15 14 14 14 13
21 21 30 30 28 30 29 26 19 15 3 2 3 4 3 2 3 4 3 3 3 2 2 3 1 2 1 3 1 1 3 2 2 3 2 2 7 9 8 6 8 5 8 10 11 15 16 17 17 15 14 12 12 11
25 25 27 27 27 29 31 21 15 6 3 0 2 3 4 3 1 2 0 2 1 1 2 3 3 2 0 1 2 2 2 3 2 1 2 4 7 8 7 6 6 6 7 9 16 15 16 16 15 13 10 9 9 9
29 24 19 29 27 27 27 17 9 2 2 1 2 1 1 2 1 1 1 1 1 1 2 2 2 2 3 3 2 3 2 1 2 2 4 7 7 4 6 5 10 16 16 16 17 15 15 14 14 12 10 8 8 9
24 6 25 25 27 29 22 7 2 1 1 3 1 1 1 0 1 2 2 0 0 2 1 1 3 6 3 0 1 0 2 3 4 5 4 6 8 7 9 12 14 16 16 16 15 13 13 12 12 10 7 8 8 7
15 27 30 34 32 21 6 2 2 2 3 2 1 3 1 1 1 1 0 1 2 1 1 1 2 1 3 3 2 2 2 3 3 4 4 5 10 15 16 14 18 18 17 15 13 12 13 13 8 9 8 10 10 9
35 38 36 33 23 7 3 3 3 3 1 1 1 1 1 1 0 0 1 1 1 1 1 1 1 2 2 2 2 2 4 3 3 2 2 12 18 18 19 19 18 16 15 14 11 12 13 11 9 11 12 6 7 11
36 35 31 26 11 3 4 2 5 2 2 3 2 1 2 1 1 0 1 2 1 1 1 2 3 2 2 2 2 3 4 6 7 5 4 3 16 18 16 14 13 15 13 12 10 9 9 6 10 9 9 7 5 6
25 24 20 11 3 3 1 2 1 2 2 2 2 2 1 1 0 1 1 2 1 2 2 1 2 1 1 6 12 14 12 14 6 4 6 6 12 13 15 15 14 15 13 12 11 8 6 12 10 5 4 4 2 0
12 19 5 3 2 3 1 1 3 3 2 1 2 1 1 1 1 2 1 2 2 2 2 3 2 3 3 3 8 14 17 14 13 14 16 17 6 8 10 12 16 15 15 14 12 8 12 12 8 5 3 2 0 1
18 9 4 4 2 1 4 1 2 2 3 3 1 2 1 1 1 1 2 3 3 3 3 2 5 10 9 11 13 15 18 17 11 12 15 15 15 15 15 16 18 14 9 10 13 17 15 9 5 3 2 2 1 3
11 5 3 3 4 3 2 0 1 2 2 2 2 2 3 2 2 1 3 2 2 1 2 4 10 4 6 8 2 8 13 18 15 17 18 17 11 12 16 12 10 11 13 15 14 12 8 6 4 3 1 1 1 1
4 5 3 1 2 3 4 2 1 2 3 3 3 1 2 2 2 3 3 2 1 2 3 6 5 3 3 1 4 12 17 20 14 11 17 20 18 17 17 17 15 13 11 13 12 10 9 8 6 4 2 0 0 0
5 4 6 6 3 4 4 4 4 4 3 2 3 1 1 2 2 5 2 2 2 3 4 5 4 3 1 7 4 8 13 20 21 12 8 20 25 23 15 12 10 6 6 7 9 9 10 9 6 3 3 3 2 1
4 4 2 1 1 2 1 0 2 3 3 4 3 3 3 3 5 3 1 1 1 4 14 19 16 11 8 11 15 17 20 22 20 17 15 14 16 19 20 19 16 10 8 5 5 6 9 9 8 5 6 5 3 3
4 4 6 3 2 1 3 3 4 5 3 2 4 4 5 6 4 2 2 4 6 15 13 12 14 17 24 24 25 25 22 24 24 22 19 15 11 8 10 12 12 11 7 5 5 6 5 5 4 3 2 2 3 5
1 1 4 3 2 1 4 5 4 2 1 2 5 3 3 1 1 1 2 4 13 17 17 15 15 22 23 22 22 24 29 29 21 6 5 3 4 8 11 11 11 9 8 9 8 6 6 6 7 7 5 3 3 4
2 2 4 2 5 5 4 3 2 2 1 3 3 2 2 2 2 1 3 7 11 14 17 19 22 21 18 18 16 15 16 18 15 13 6 5 13 17 14 12 12 11 10 9 9 9 6 5 4 3 4 2 2 5
1 2 3 3 3 2 3 1 3 2 2 2 2 3 3 2 1 4 4 6 11 16 18 15 16 19 19 18 17 14 8 9 10 10 7 13 19 18 15 14 11 10 9 8 7 5 6 5 5 4 3 4 5 7
1 2 3 3 1 2 2 2 1 1 2 2 2 2 2 3 2 2 6 9 12 15 18 20 16 15 17 19 18 13 11 14 13 15 18 20 20 18 16 14 12 10 9 8 7 7 5 4 3 3 3 4 6 8
1 2 3 3 2 0 2 2 1 1 1 2 3 4 4 5 5 3 4 5 12 19 20 19 18 20 19 19 19 15 17 17 17 17 17 18 18 17 15 12 12 11 10 9 7 5 4 3 3 2 4 6 7 7
Wind_Direction
161 169 173 170 172 165 159 166 164 165 161 151 145 119 107 102 73 95 58 40 85 102 329 32 39 65 47 67 114 271 44 359 30 52 55 276 22 303 295 246 327 43 271 187 207 178 270 0 357 41 37 75 79 77
174 177 175 175 169 157 164 168 163 161 161 154 140 123 111 107 95 94 62 53 51 89 201 333 28 116 113 151 133 21 157 133 184 81 8 6 340 330 304 358 347 40 350 25 28 72 35 15 39 39 36 76 87 93
183 181 174 174 168 165 168 170 169 163 156 151 140 134 120 117 91 101 66 32 59 67 360 35 328 156 166 159 141 115 7 126 64 165 168 225 278 21 319 38 316 357 10 41 145 50 52 38 60 47 56 77 77 82
170 168 168 170 163 169 168 170 167 161 158 156 151 139 125 123 118 82 64 38 64 108 101 306 47 108 180 164 130 107 132 81 99 108 131 163 197 198 276 81 58 341 323 345 87 135 123 57 33 64 72 68 76 74
167 168 169 167 163 167 167 163 160 158 161 156 149 140 127 118 118 101 71 53 47 92 164 280 315 278 164 169 179 165 136 98 82 29 63 245 254 92 44 72 30 346 349 347 18 336 95 64 61 46 70 86 89 90
163 167 165 167 158 165 165 160 162 156 154 153 142 137 124 120 131 126 41 42 53 42 84 46 310 310 174 170 168 171 142 101 102 130 240 272 258 125 90 108 171 41 50 27 103 63 95 91 87 76 82 79 75 82
157 152 152 159 160 159 157 155 152 150 152 152 143 130 121 111 76 66 116 30 94 40 61 10 346 294 181 159 66 74 117 124 123 185 244 234 285 143 120 143 150 88 46 27 41 131 84 341 116 115 102 89 85 89
165 157 156 157 161 157 159 159 158 154 152 148 137 125 120 107 95 63 57 57 54 87 61 78 278 4 46 88 83 61 95 76 317 206 297 236 299 153 107 128 132 135 106 71 67 66 110 120 135 114 109 104 93 90
151 162 159 161 163 163 166 163 159 152 148 144 133 119 99 71 82 117 111 47 36 85 119 110 143 233 358 76 108 25 112 76 224 201 238 150 327 85 175 150 137 119 195 168 142 118 107 99 88 116 108 99 100 97
147 154 163 168 162 159 157 155 154 152 146 137 121 66 62 111 128 121 55 47 36 98 142 226 204 275 110 7 312 80 51 215 194 230 113 107 90 75 77 77 104 126 63 231 141 128 117 108 102 94 93 92 97 101
154 156 158 160 155 157 156 153 155 148 137 119 95 90 122 143 119 110 117 148 166 225 201 227 197 190 246 116 206 203 187 243 241 269 148 170 159 123 103 88 72 79 74 62 79 70 106 119 120 113 100 94 94 95
160 164 161 163 160 161 155 156 153 147 153 140 122 105 140 179 156 168 193 235 189 231 202 175 208 181 257 125 103 323 240 161 253 144 120 164 103 112 109 106 90 85 88 80 83 89 95 100 107 108 107 103 104 111
164 163 161 167 163 163 158 159 157 147 134 108 102 131 159 152 195 160 195 262 211 241 221 165 69 150 15 54 61 142 256 230 344 80 164 133 128 122 120 111 98 97 97 97 91 94 98 98 111 118 115 120 119 113
167 163 158 152 161 161 160 155 153 152 89 93 150 153 202 209 246 190 186 190 241 122 89 102 43 120 215 55 238 267 257 274 280 184 200 168 147 135 124 118 120 108 106 107 107 111 110 110 109 115 119 129 128 128
166 161 153 158 159 162 162 155 158 141 89 300 224 231 207 224 178 172 134 161 9 41 50 46 30 93 355 112 189 254 291 268 4 96 190 140 128 125 122 122 123 125 122 121 128 123 124 125 122 121 127 132 132 133
159 155 156 166 163 160 156 140 123 55 43 268 264 126 358 136 121 74 335 132 347 76 55 62 146 152 218 186 181 224 273 263 231 159 125 128 130 127 135 134 141 143 141 141 142 141 139 140 142 138 140 143 143 150
154 126 164 165 160 152 146 125 106 56 105 280 325 13 259 168 155 166 148 215 143 87 185 163 206 213 169 65 229 108 225 223 147 128 127 135 149 152 146 142 145 148 150 149 149 156 156 149 147 146 162 178 180 188
125 143 148 143 137 128 108 83 145 163 236 209 104 247 204 138 76 82 168 169 124 172 211 242 326 154 174 176 224 183 119 70 82 118 126 130 136 147 149 148 156 158 159 160 161 158 159 163 181 209 213 204 204 217
142 146 154 155 141 127 122 178 217 208 220 128 117 34 93 78 360 276 342 23 94 155 300 359 89 206 193 187 164 147 148 149 144 140 126 146 150 149 153 157 158 159 163 165 167 178 187 202 233 227 228 196 211 240
153 157 154 155 155 123 150 190 184 142 169 220 89 147 145 166 128 38 8 26 36 314 269 226 216 199 180 213 169 139 134 135 132 128 143 149 155 155 157 156 161 168 175 182 190 217 224 183 156 134 146 152 139 133
137 151 147 156 44 342 234 159 154 170 141 141 152 122 104 75 172 184 221 189 195 228 234 162 140 227 43 106 126 130 143 148 163 156 167 161 165 158 163 169 178 181 186 202 196 174 183 170 165 167 164 158 128 128
124 142 108 155 5 284 284 242 151 146 79 140 124 171 172 186 200 221 168 200 230 217 177 168 187 149 120 125 148 158 161 153 144 134 143 146 154 156 170 190 184 194 209 207 206 184 166 162 167 172 168 131 93 318
131 139 108 150 229 102 255 335 101 156 125 167 152 215 193 182 209 76 260 215 240 231 182 128 154 154 132 143 150 147 157 146 140 145 151 156 165 174 187 196 195 203 188 186 189 171 165 166 164 161 171 161 22 360
128 134 148 203 187 185 349 318 152 116 99 168 193 213 178 169 122 45 247 241 253 338 69 116 128 105 108 125 100 133 145 151 144 153 159 156 156 165 168 146 163 177 171 162 162 160 164 167 169 160 162 203 255 147
121 210 193 183 107 122 164 164 167 95 187 196 190 177 198 105 174 232 235 258 166 126 139 129 132 134 137 147 118 141 164 155 146 148 164 167 135 122 120 121 123 133 153 156 162 168 176 182 179 192 162 152 162 54
243 204 163 174 151 186 171 169 189 184 157 157 184 140 106 146 238 239 244 214 208 158 166 164 153 129 94 143 138 144 148 163 153 120 132 162 162 154 153 149 137 127 157 183 179 175 177 182 177 175 137 105 110 60
203 225 234 213 164 120 81 231 135 135 163 176 167 162 174 226 240 246 271 311 273 202 186 183 175 148 136 126 134 146 153 158 156 146 140 155 176 189 186 176 170 166 170 184 183 189 169 163 154 141 126 105 72 30
195 153 163 212 84 72 149 166 161 192 185 194 117 175 192 205 230 227 217 340 139 132 133 152 172 171 161 155 148 146 140 142 135 130 121 107 102 122 167 170 155 154 164 159 154 153 155 154 144 128 95 57 56 16
173 242 103 114 101 65 211 199 204 213 235 157 161 216 224 229 226 175 47 113 150 140 119 110 112 148 145 146 152 158 158 155 141 127 122 135 126 126 139 144 142 138 133 128 120 124 126 115 112 101 90 71 41 36
216 127 96 101 157 215 230 162 188 246 15 141 124 79 34 341 182 126 152 147 155 149 154 150 147 146 143 138 130 140 168 178 186 169 153 171 175 155 155 154 147 140 136 128 123 124 128 128 127 129 119 85 36 5
126 91 98 123 182 253 216 226 22 43 38 59 12 111 190 232 269 223 219 191 170 161 150 144 150 154 146 148 149 139 127 168 189 193 188 159 157 156 158 162 152 148 149 144 139 137 139 127 110 98 70 40 20 3
63 174 142 124 235 290 31 88 152 98 330 64 296 79 26 51 268 272 204 199 180 171 172 170 159 164 177 176 173 165 166 154 155 158 159 154 153 154 152 153 155 158 155 144 130 125 120 117 99 66 61 19 358 353
37 62 86 101 90 171 276 117 146 287 52 208 248 184 189 174 223 240 176 185 195 186 178 174 171 169 172 172 168 153 153 150 147 147 147 149 151 153 154 152 149 144 138 133 125 116 110 112 101 68 13 1 358 1
Height
692 699 704 709 714 720 725 728 732 735 738 740 743 744 744 745 746 746 748 747 746 757 758 755 755 759 763 768 780 773 777 777 781 786 786 798 795 775 764 759 748 744 742 742 742 744 744 759 746 744 755 760 762 763
694 700 704 710 715 720 725 729 733 736 739 742 744 746 747 748 749 749 750 749 749 752 759 757 757 758 760 762 769 772 776 778 784 792 790 789 784 777 764 750 752 752 759 752 756 765 770 772 769 768 766 764 768 768
694 699 704 710 716 721 726 730 733 737 740 743 745 748 749 750 751 751 752 752 752 758 760 759 758 759 761 762 763 773 775 772 776 779 790 790 788 775 769 762 761 760 764 759 763 774 773 772 773 774 775 775 775 777
694 698 705 710 716 722 727 731 734 738 741 744 747 750 751 752 754 754 755 756 756 760 771 763 760 760 761 762 764 766 769 771 774 777 787 792 787 772 773 768 774 774 769 770 773 776 778 779 780 779 780 780 779 779
693 699 705 711 717 722 727 731 735 739 743 746 749 751 753 755 756 757 758 759 760 763 772 770 761 759 761 762 765 767 769 773 778 782 790 788 777 775 775 776 778 779 780 777 784 780 781 784 785 783 782 784 786 785
693 699 704 711 718 723 727 732 736 740 744 747 750 753 755 756 758 758 763 763 763 763 770 778 765 760 761 763 765 767 769 774 778 783 786 779 769 772 780 786 784 781 782 782 787 785 785 787 788 788 789 791 793 793
695 701 706 713 719 724 729 734 738 742 746 749 752 755 757 759 759 761 768 767 765 766 774 781 772 761 760 763 766 768 769 773 776 781 782 778 771 766 778 776 784 784 784 784 783 785 787 787 789 790 792 793 794 795
698 703 708 715 720 725 731 735 739 743 748 752 754 757 759 762 764 765 767 767 767 768 773 784 777 770 761 768 770 770 774 775 777 779 779 774 768 766 776 781 784 786 788 788 787 785 785 788 790 793 796 798 800 801
699 705 710 716 722 727 732 736 741 745 750 753 757 760 762 764 766 768 769 770 770 774 773 778 784 789 764 769 771 773 773 787 776 781 774 769 775 774 777 779 783 786 788 789 789 789 791 795 794 797 800 802 803 805
703 708 713 718 724 729 733 738 742 747 752 755 759 762 766 766 768 770 772 773 774 774 775 772 772 775 768 779 781 780 780 779 779 770 766 774 777 780 780 781 784 787 789 789 789 792 796 799 801 803 805 807 808 809
706 711 715 720 725 730 735 740 745 749 754 757 761 764 765 768 770 771 773 775 776 772 774 771 770 770 764 778 779 770 769 767 761 762 761 769 772 779 785 788 790 792 793 794 794 796 797 800 804 807 810 811 813 813
708 712 716 722 727 733 738 742 747 750 754 757 759 763 767 769 769 770 773 774 772 765 766 767 764 764 762 761 772 767 763 765 756 759 764 778 783 785 788 792 795 797 798 800 801 801 803 805 808 809 812 814 814 815
710 714 718 724 730 735 740 745 750 752 754 758 761 764 765 768 766 773 784 772 778 764 760 762 759 762 763 764 773 766 758 762 758 768 766 782 784 789 792 795 799 801 802 804 806 806 807 809 810 811 813 815 816 817
711 715 719 726 732 737 743 748 752 754 756 760 759 764 764 775 776 772 768 770 762 762 760 763 768 767 770 771 776 763 766 758 763 765 768 784 784 790 794 797 800 804 805 806 807 808 810 811 813 814 816 817 818 818
713 717 723 730 735 740 746 751 754 756 758 760 758 766 770 761 756 757 756 755 758 757 762 765 767 767 771 769 766 766 761 757 755 763 782 785 789 794 798 801 803 806 807 808 809 811 813 814 815 817 818 819 820 821
715 721 726 732 738 744 749 754 757 759 760 761 757 755 755 754 759 759 758 757 758 759 762 762 761 762 761 768 760 761 754 754 778 783 782 787 792 797 799 801 804 806 808 810 812 814 815 817 818 819 821 822 822 823
718 721 728 734 741 747 753 756 759 762 762 758 758 760 758 755 757 758 759 759 759 761 762 758 758 758 758 765 760 765 760 784 778 781 783 787 792 797 799 802 804 807 809 812 814 815 817 818 820 821 822 822 823 824
720 726 731 738 744 750 756 759 761 761 761 757 766 765 763 759 758 758 759 760 761 761 760 758 758 759 778 764 765 771 774 778 780 784 787 790 793 796 798 802 805 808 810 812 814 816 818 819 821 821 821 822 823 823
724 730 735 740 745 749 755 759 759 757 757 758 760 760 760 760 760 760 760 759 760 761 763 762 764 767 757 761 772 776 775 781 784 788 790 791 793 796 800 803 806 808 811 813 815 816 817 818 818 818 819 821 822 821
728 734 740 744 747 749 752 754 754 756 762 762 759 760 760 761 761 761 760 760 761 761 760 762 762 762 763 763 763 766 771 775 780 787 792 794 795 797 800 803 806 808 811 813 815 816 817 818 819 819 820 821 821 821
737 741 745 747 749 751 750 750 752 752 756 757 758 759 761 761 761 761 761 761 762 758 760 759 760 763 760 760 761 764 770 773 777 780 785 791 795 798 801 804 806 808 810 812 814 815 816 817 819 819 820 820 820 820
737 743 748 752 753 751 750 747 748 751 755 757 758 758 759 761 760 760 759 759 757 757 755 760 760 760 762 763 764 766 769 773 777 780 785 789 794 797 801 803 805 808 809 811 813 814 816 817 818 819 819 819 820 819
741 745 748 751 752 753 753 747 750 750 758 758 757 756 758 758 758 758 761 758 757 753 753 755 757 758 761 763 765 768 770 773 778 782 786 789 793 797 800 802 804 806 808 809 811 813 815 817 818 819 819 819 819 818
742 744 747 748 748 751 752 753 748 750 751 754 755 754 756 757 759 765 764 756 756 753 754 755 757 761 764 765 768 769 772 774 778 783 786 790 794 797 799 801 803 805 807 809 811 813 815 816 817 818 818 818 818 818
745 746 744 746 746 751 747 747 748 752 750 751 751 755 758 759 766 760 756 758 753 754 756 757 759 761 766 769 769 771 773 775 779 784 787 790 793 798 801 803 805 806 808 809 811 812 814 815 816 816 817 817 817 817
734 742 742 742 742 741 743 744 746 746 748 752 752 753 758 763 758 753 750 758 755 754 755 757 760 763 766 766 770 772 775 777 780 784 788 790 792 794 799 802 804 807 808 809 810 811 812 814 815 816 816 816 816 816
740 742 738 736 736 734 739 739 739 743 745 746 749 756 752 755 750 756 755 752 752 750 751 754 758 760 764 767 770 773 776 779 781 785 789 791 793 795 797 799 802 805 807 808 809 810 812 813 815 815 816 816 816 816
732 735 739 741 740 739 737 740 748 739 739 743 748 753 760 757 752 757 754 752 751 751 752 755 757 760 763 767 769 773 777 780 784 787 790 793 796 797 798 800 803 806 807 809 810 811 812 813 814 815 816 816 816 816
735 733 733 739 742 746 734 732 737 745 744 744 748 755 758 756 754 753 753 752 752 752 754 757 760 761 765 769 771 774 776 779 783 789 794 798 799 802 802 803 805 807 808 809 811 812 813 814 815 815 816 816 816 816
732 730 740 749 746 747 747 746 747 745 743 745 747 751 754 755 753 753 753 753 754 754 755 757 760 763 766 769 774 777 780 781 783 785 790 794 795 799 802 804 806 808 810 811 812 813 814 815 815 815 816 816 816 815
727 730 738 744 751 749 748 745 744 744 746 749 749 754 758 757 754 753 753 754 755 756 758 760 762 764 766 770 773 776 780 783 784 786 788 790 794 799 802 804 806 808 810 812 813 814 814 815 815 816 816 815 815 814
731 730 733 745 750 748 746 749 752 754 755 755 755 756 758 761 762 752 751 752 753 755 757 759 762 766 768 771 774 777 779 782 784 786 788 792 796 799 802 805 807 809 811 812 813 814 815 815 816 816 816 815 815 813
732 731 737 743 748 750 751 748 751 752 754 757 754 752 753 752 753 750 749 750 751 752 756 760 763 766 769 772 775 778 781 784 787 790 792 795 798 801 804 806 808 810 811 813 814 815 815 816 816 816 816 815 813 812